Regional Weather Roundup
Issued by NWS Boston, MA

Home | Current Version | Previous Version | Text Only | Print | Product List | Glossary On
Versions: 1 2 3 4 5 6 7 8 9 10 11 12 13 14 15 16 17 18 19 20 21 22 23 24 25 26 27 28 29 30 31 32 33 34 35 36 37 38 39 40 41 42 43 44 45 46 47 48 49 50
000
ASUS41 KBOX 280110
RWRBOX

REGIONAL WEATHER ROUNDUP
NATIONAL WEATHER SERVICE TAUNTON MA
900 PM EDT THU AUG 27 2015

NOTE:  "FAIR" INDICATES FEW OR NO CLOUDS BELOW 12,000 FEET WITH NO
SIGNIFICANT WEATHER AND/OR OBSTRUCTIONS TO VISIBILITY.  THE FOLLOWING
OBSERVATION LOCATIONS DO NOT REPORT PRESENT WEATHER...PROVINCETOWN...
SMITHFIELD...BLOCK ISLAND...KEENE...AND OXFORD.

MAZALL-280200-
EASTERN MASSACHUSETTS

CITY           SKY/WX    TMP DP  RH WIND       PRES   REMARKS
BOSTON         PTCLDY    74  53  48 NW10      30.04R
BEVERLY        CLEAR     66  55  67 NW5       30.03R
LAWRENCE       CLEAR     68  55  63 W3        30.06R
BEDFORD        CLEAR     66  53  63 W5        30.04R
BLUE HILL        N/A     67  55  65 NW9       30.04R
NORWOOD        PTCLDY    69  56  62 W7        30.04R
MARSHFIELD     PTCLDY    70  57  64 W3        30.05R
PLYMOUTH       PTCLDY    68  57  68 W5        30.04R
TAUNTON        CLEAR     62  58  86 CALM      30.03R
NEW BEDFORD    PTCLDY    66  58  75 CALM      30.04R
$$

MAZALL-280200-
CAPE COD AND THE ISLANDS

CITY           SKY/WX    TMP DP  RH WIND       PRES   REMARKS
FALMOUTH       CLEAR     68  59  73 NW5       30.04R
HYANNIS        PTCLDY    70  60  70 W5        30.02R
CHATHAM        PTCLDY    68  62  81 CALM      30.03R
PROVINCETOWN   CLEAR     64  54  68 W3        30.03R
NANTUCKET      PTCLDY    70  64  81 W9        30.03R
MARTHAS VNYRD  PTCLDY    68  62  81 W6        30.04R
$$

MAZALL-280200-
CENTRAL AND WESTERN MASSACHUSETTS

CITY           SKY/WX    TMP DP  RH WIND       PRES   REMARKS
WORCESTER      PTCLDY    63  54  72 W9        30.08R
FITCHBURG      MOCLDY    68  55  63 NW6       30.06R
ORANGE         CLEAR     63  58  83 W5        30.07R
SPRINGFIELD    CLEAR     67  55  66 W6        30.06R
WESTFIELD      CLEAR     67  56  67 CALM      30.07R
NORTH ADAMS    CLOUDY    61  57  87 CALM      30.11R
PITTSFIELD     CLEAR     60  54  80 W10       30.10R
$$

RIZALL-280200-
RHODE ISLAND

CITY           SKY/WX    TMP DP  RH WIND       PRES   REMARKS
PROVIDENCE     PTCLDY    70  55  59 W5        30.05R
NEWPORT        PTCLDY    71  58  63 W5        30.05R
BLOCK ISLAND   PTCLDY    70  64  83 W6        30.06R
SMITHFIELD     CLEAR     64  55  72 NW6       30.06R
WESTERLY       PTCLDY    66  57  72 CALM      30.06R
$$

CTZALL-280200-
CONNECTICUT

CITY           SKY/WX    TMP DP  RH WIND       PRES   REMARKS
BRADLEY INTL   MOCLDY    68  55  63 NW5       30.06R
HARTFORD       MOCLDY    71  56  58 W6        30.07R
BRIDGEPORT     CLEAR     72  57  59 W5        30.08R
DANBURY        CLEAR     62  55  77 W3        30.11R
GROTON         PTCLDY    65  60  84 CALM      30.06R
NEW HAVEN      CLEAR     72  56  57 NW5       30.08R
CHESTER        NOT AVBL
MERIDEN        CLEAR     69  55  60 NW6       30.07R
WILLIMANTIC    CLEAR     69  56  62 NW5       30.07R
OXFORD         CLEAR     63  52  67 CALM      30.11R
$$

MEZ002-015-021-024-NHZ003-005-008-011-012-014-VTZ005-008-280200-
NORTHERN NEW ENGLAND

CITY           SKY/WX    TMP DP  RH WIND       PRES   REMARKS
PORTLAND ME    CLEAR     65  58  78 W6        30.02R
BANGOR ME      PTCLDY    64  57  78 W5        29.99R
CONCORD NH     CLEAR     65  54  67 W5        30.05R
MANCHESTER NH  PTCLDY    70  53  54 NW6       30.04R
NASHUA NH      PTCLDY    67  56  67 W5        30.06R
PORTSMOUTH NH  PTCLDY    67  57  69 W6        30.02R
JAFFREY NH     CLEAR     61  56  83 CALM      30.09R
KEENE NH       CLEAR     61  54  77 CALM      30.07R
BURLINGTON VT  MOCLDY    68  54  60 NW5       30.07R
MT. WASHINGTON FOG       41  41 100 NW37G43     N/A  VSB 1/16WCI  29
$$

NYZ052-076-280200-
EASTERN NEW YORK

CITY           SKY/WX    TMP DP  RH WIND       PRES   REMARKS
ALBANY         MOCLDY    67  55  65 W9        30.09R
NEW YORK CITY  PTCLDY    74  52  46 NW14      30.08R
$$

ANZALL-280200-
MARINE OBSERVATIONS

STATION/POSITION TIME  TEMP    WIND        PRES    VSBY  WAVE
                       AIR SEA DIR/SP/G                  HT/PER
                 (UTC) (F)     (DEG/KT/KT) (MB)    (MI)  (FT/S)
BOSTON BUOY      0050   72 70  320/ 10/ 14 1016.8R         3/10
BUZZARDS BAY     0000          290/ 15/ 15 1017.3R
NANTUCKET SOUND  0050   74 75  270/ 16/ 17 1016.2R         2/ 3
MASS BAY-STELLWA 0004   71 71  210/  4/  4   N/A    1 7/8  3/11
ISLE OF SHOALS   0100   70     300/  8/  9 1016.5R
S OF BLOCK IS    0008      75                N/A           3/11
$$

......................KEY.........................
  SKY/WX - SKY CONDITION/PRESENT WEATHER
  TMP    - TEMPERATURE IN FAHRENHEIT
  DWPT   - DEWPOINT IN FAHRENHEIT
  RH     - RELATIVE HUMIDITY IN PERCENT
  WIND   - DIRECTION AND SPEED IN MPH
  PRES   - MEAN SEA LEVEL PRESSURE IN INCHES OF HG
  WCI    - WIND CHILL INDEX
  VSB    - VISIBILITY IN MILES
  HX     - HEAT INDEX
  TC     - TEMPERATURE IN CELSIUS
  VRB    - VARIABLE WIND DIRECTION
  N/A    - NOT AVAILABLE



USA.gov is the U.S. government's official web portal to all federal, state and local government web resources and services.